Regional Weather Roundup
Issued by NWS Binghamton, NY

Home | Current Version | Previous Version | Text Only | Print | Product List | Glossary On
Versions: 1 2 3 4 5 6 7 8 9 10 11 12 13 14 15 16 17 18 19 20 21 22 23 24 25 26 27 28 29 30 31 32 33 34 35 36 37 38 39 40 41 42 43 44 45 46 47 48 49 50
000
ASUS41 KBGM 301710
RWRBGM

REGIONAL WEATHER ROUNDUP
NATIONAL WEATHER SERVICE BINGHAMTON NY
100 PM EDT SAT APR 30 2016

Note: "fair" indicates few or no clouds below 12,000 feet with no
significant weather and/or obstructions to visibility.

* = Station(s) that does not report precipitation, such as rain,
snow, etc, also no thunder or fog.

NYZ009-015>018-022>025-036-037-044>046-055>057-062-301800
...Central New York...

CITY           SKY/WX    TMP DP  RH WIND       PRES   REMARKS
Binghamton     CLOUDY    51  40  65 CALM      30.16F
Cortland       CLOUDY    57  41  54 S6        30.16F
Dansville      CLOUDY    55  43  63 NW3       30.18F
Elmira         CLOUDY    55  39  54 MISG      30.17F
Ithaca         PTSUNNY   56  41  57 SE7       30.18F
Hamilton       CLOUDY    57  39  51 NW5       30.17S
Hornell        CLOUDY    54  37  54 SE8       30.20F
Monticello     CLOUDY    52  39  62 E6        30.19S
Norwich        CLOUDY    55  37  50 SE5       30.17F
Oneonta        PTSUNNY   54  36  50 S3        30.17R
Penn Yan       CLOUDY    56  40  55 VRB3      30.18F
Rome           SUNNY     59  39  47 VRB5      30.18F
Sidney         CLOUDY    55  45  67 CALM      30.18S
Syracuse       MOSUNNY   59  37  44 VRB5      30.17F
$$

PAZ038>040-043-044-047-048-072-301800
...Northeast Pennsylvania...

CITY           SKY/WX    TMP DP  RH WIND       PRES   REMARKS
Hazleton       CLOUDY    50  37  62 CALM      30.21S
Scranton       CLOUDY    53  40  61 W3        30.18S
$$
&&
KEY
WCI = Wind Chill Index
VSB = Visibility
HX  = Heat Index
$$



USA.gov is the U.S. government's official web portal to all federal, state and local government web resources and services.